[[{"header":{"parameterUnit":"m.s-1","parameterCategory":1,"la1":30.2991,"la2":30.254,"lo1":-89.0895,"lo2":-89.0444,"dy":0.0017,"dx":0.0017,"nx":28,"ny":28,"refTime":"2025-01-31T09:00:00:Z","depth":0,"parameterNumber":2,"parameterNumberName":"U-component_of_WINDS"},"data":[0,0,0,0,0,0,0,0,0,0,0,0,0,0,0,0,0,0,0,0,0,0,0,0,0,0,0,0,0,0,0,0,0,0,0,0,0,0,0,0,0,0,0,0,0,0,0,0,0,0,0,0,0,0,0,0,0,0,0.2988,0.2989,0,0.3047,0.3047,0.3048,0.307,0.307,0.307,0.307,0.313,0.3132,0.3134,0,0,0,0,0,0,0,0,0,0,0,0,0,0.2895,0.2897,0.2988,0.2989,0.2989,0.3047,0.3047,0.3048,0.307,0.307,0.307,0.307,0.313,0.3132,0.3134,0,0,0,0,0,0,0,0,0,0,0,0,0,0.2943,0.2897,0.2988,0.3007,0.301,0.3046,0.3047,0.3048,0.307,0.307,0.307,0.307,0.3129,0.3132,0.3134,0.3156,0,0,0.3143,0.3144,0,0,0,0,0,0,0,0,0.294,0.2946,0.3004,0.3006,0.3009,0.3051,0.3037,0.3085,0.307,0.3047,0.307,0.307,0.3104,0.3109,0.3121,0.3159,0.3162,0.3143,0.3144,0.3146,0.3146,0,0,0,0,0,0,0,0.2937,0.2944,0.3011,0.3004,0.3008,0.3013,0.302,0.3046,0.3077,0.3049,0.3051,0.3058,0.3106,0.3118,0.3122,0.3163,0.3143,0.3145,0.3147,0.3148,0.3222,0.3222,0,0,0,0,0,0,0.293,0.2941,0.3009,0.3013,0.2973,0.3015,0.3022,0.3038,0.3076,0.3082,0.3058,0.3059,0.3114,0.3119,0.3124,0.3152,0.3146,0.3148,0.315,0.3221,0.3222,0.3222,0,0,0,0,0,0,0.2928,0.2936,0.3007,0.2977,0.2987,0.3017,0.3034,0.3039,0.3051,0.3083,0.3088,0.3065,0.3114,0.3121,0.3148,0.3155,0.3149,0.3152,0.3221,0.3221,0.3222,0.3208,0,0,0,0,0,0,0.2925,0.2935,0.2944,0.2977,0.2988,0.3029,0.3034,0.304,0.3056,0.3057,0.3091,0.3096,0.3114,0.3144,0.3151,0.3158,0.3154,0.322,0.3221,0.3222,0.3208,0.3208,0.3208,0,0,0,0,0,0.2922,0.2937,0.2944,0.2952,0.3,0.303,0.3036,0.3056,0.3056,0.3065,0.3085,0.3095,0.3153,0.3147,0.3154,0.3163,0.322,0.3221,0.3222,0.3208,0.3208,0.3208,0,0,0,0,0,0,0.2904,0.2942,0.295,0.2977,0.3,0.3033,0.3045,0.3055,0.3079,0.3079,0.3103,0.311,0.3136,0.3152,0.3144,0.3186,0.3187,0.319,0.3174,0.3174,0.3174,0.317,0.3156,0,0,0,0,0,0.2903,0.2924,0.2957,0.2977,0.2989,0.3015,0.3029,0.3042,0.3067,0.3077,0.3099,0.3123,0.3146,0.3161,0.3185,0.3211,0.3218,0.322,0.322,0.322,0.3222,0.3237,0.3238,0.3225,0.3225,0.3225,0,0,0.2901,0.2925,0.2937,0.2974,0.2994,0.3015,0.3023,0.3045,0.3061,0.308,0.3107,0.3124,0.3153,0.3179,0.3192,0.3194,0.3227,0.3221,0.3221,0.3223,0.3238,0.3239,0.324,0.3225,0.3225,0.3225,0,0,0.2909,0.293,0.2949,0.2968,0.2997,0.3015,0.3019,0.3052,0.3064,0.3091,0.3106,0.3125,0.3165,0.3185,0.32,0.3215,0.3225,0.3222,0.3222,0.3236,0.3237,0.3238,0.3244,0.3245,0.3224,0.3224,0.3224,0,0.2904,0.2937,0.2958,0.2979,0.2995,0.3013,0.3033,0.305,0.3086,0.3096,0.3098,0.3148,0.3168,0.32,0.3204,0.3215,0.3221,0.3218,0.3236,0.3237,0.3238,0.3243,0.3245,0.3223,0.3223,0.3224,0.3224,0,0.2928,0.2951,0.2963,0.2996,0.3014,0.3034,0.3058,0.3074,0.3085,0.3102,0.313,0.3155,0.3184,0.3192,0.3204,0.3226,0.3226,0.3231,0.3233,0.3238,0.3244,0.3246,0.3223,0.3223,0.3223,0.3223,0,0,0.2926,0.2971,0.2975,0.2991,0.3024,0.3042,0.3063,0.3091,0.3104,0.3128,0.3146,0.3179,0.3184,0.3202,0.3216,0.3228,0.3239,0.3232,0.3233,0.3232,0.3263,0.3259,0.3261,0.3245,0.3246,0.3246,0.3261,0,0.2939,0.2978,0.2997,0.3028,0.3049,0.3066,0.3085,0.3107,0.3124,0.3144,0.3163,0.3186,0.3191,0.3201,0.3214,0.3235,0.3245,0.3234,0.3263,0.3264,0.3255,0.3264,0.3259,0.3272,0.3263,0.3264,0.3264,0,0.2958,0.2982,0.3014,0.3045,0.3055,0.3071,0.3098,0.3117,0.3143,0.3155,0.3174,0.3188,0.3211,0.3211,0.3243,0.3235,0.3248,0.326,0.3261,0.3264,0.3264,0.3267,0.3277,0.3278,0.3267,0.3267,0.3267,0,0.2953,0.2993,0.3018,0.303,0.3067,0.3078,0.3094,0.312,0.3135,0.3159,0.3169,0.3196,0.321,0.323,0.325,0.3249,0.3281,0.3283,0.3291,0.329,0.3297,0.3296,0.3308,0.3305,0.3305,0.3305,0.3305,0,0.2965,0.2984,0.3016,0.3031,0.3053,0.3075,0.3096,0.3114,0.3136,0.3155,0.3172,0.3189,0.3215,0.3236,0.3252,0.3276,0.3283,0.3293,0.3297,0.3291,0.329,0.33,0.3299,0.3306,0.3306,0.3306,0.3305,0,0.2963,0.2985,0.3013,0.3046,0.3054,0.3069,0.3097,0.3112,0.313,0.3153,0.316,0.3188,0.3213,0.3235,0.3269,0.328,0.3304,0.331,0.3295,0.3298,0.3304,0.3303,0.3323,0.3327,0.3322,0.3322,0.3322,0,0.2969,0.2984,0.3018,0.3032,0.3047,0.3069,0.3085,0.3108,0.3123,0.3154,0.3166,0.3192,0.3214,0.3253,0.3277,0.3302,0.3308,0.3313,0.3312,0.3306,0.3308,0.3307,0.3308,0.3313,0.3313,0.3313,0.3313,0,0.2977,0.2987,0.3009,0.3035,0.3054,0.3075,0.3097,0.3107,0.3134,0.3151,0.3177,0.3194,0.3228,0.3254,0.3282,0.3299,0.331,0.3313,0.3316,0.331,0.3301,0.3306,0.3295,0.3312,0.3312,0.3312,0.3312,0.3312,0.2979,0.2993,0.3019,0.3043,0.3062,0.3083,0.3098,0.3118,0.314,0.3169,0.3181,0.3207,0.3233,0.3272,0.3288,0.3309,0.3311,0.3316,0.3317,0.3318,0.3317,0.3298,0.3314,0.3314,0.3314,0.3315,0.3315,0,0.2988,0.3005,0.3027,0.3057,0.3076,0.3086,0.311,0.3126,0.3148,0.3171,0.3193,0.3222,0.3247,0.3272,0.3299,0.3311,0.3317,0.3317,0.3316,0.332,0.3313,0.3308,0.3312,0.3312,0.3312,0.3312,0.3312,0.3312,0.2994,0.3019,0.3032,0.3066,0.3084,0.3109,0.3122,0.3141,0.316,0.3192,0.3213,0.3229,0.3253,0.3281,0.3304,0.3311,0.332,0.3319,0.3327,0.332,0.332,0.332,0.3315,0.3321,0.3321,0.3332,0.3332,0.3332]},{"header":{"parameterUnit":"m.s-1","parameterCategory":1,"la1":30.2991,"la2":30.254,"lo1":-89.0895,"lo2":-89.0444,"dy":0.0017,"dx":0.0017,"nx":28,"ny":28,"refTime":"2025-01-31T09:00:00:Z","depth":0,"parameterNumber":3,"parameterNumberName":"V-component_of_WINDS"},"data":[0,0,0,0,0,0,0,0,0,0,0,0,0,0,0,0,0,0,0,0,0,0,0,0,0,0,0,0,0,0,0,0,0,0,0,0,0,0,0,0,0,0,0,0,0,0,0,0,0,0,0,0,0,0,0,0,0,0,1.4897,1.4897,0,1.4863,1.4863,1.4863,1.4836,1.4836,1.4836,1.4836,1.4797,1.4797,1.4796,0,0,0,0,0,0,0,0,0,0,0,0,0,1.4937,1.4936,1.4897,1.4897,1.4897,1.4863,1.4863,1.4863,1.4836,1.4836,1.4836,1.4836,1.4798,1.4797,1.4796,0,0,0,0,0,0,0,0,0,0,0,0,0,1.4913,1.4936,1.4897,1.488,1.4878,1.4864,1.4863,1.4862,1.4836,1.4836,1.4836,1.4835,1.4798,1.4797,1.4796,1.4796,0,0,1.4792,1.4792,0,0,0,0,0,0,0,0,1.4914,1.4912,1.4883,1.4881,1.4879,1.4854,1.4863,1.484,1.4837,1.4852,1.4836,1.4835,1.4816,1.4814,1.4808,1.4794,1.4792,1.4792,1.4791,1.4791,1.479,0,0,0,0,0,0,0,1.4916,1.4913,1.4884,1.4882,1.488,1.4872,1.4869,1.4858,1.4836,1.4851,1.4849,1.4845,1.4815,1.4809,1.4807,1.4792,1.4792,1.4791,1.479,1.479,1.4776,1.4776,0,0,0,0,0,0,1.4921,1.4914,1.4885,1.4883,1.4896,1.4872,1.4868,1.4862,1.4837,1.4832,1.4846,1.4844,1.4811,1.4808,1.4805,1.4804,1.4791,1.479,1.4789,1.4776,1.4776,1.4776,0,0,0,0,0,0,1.4922,1.4919,1.4886,1.4898,1.4893,1.4872,1.4866,1.4862,1.4856,1.4833,1.4828,1.4844,1.4811,1.4807,1.4799,1.4802,1.4789,1.4788,1.4775,1.4776,1.4776,1.48,0,0,0,0,0,0,1.4923,1.4919,1.4919,1.4898,1.4893,1.4881,1.4866,1.4861,1.4854,1.4852,1.483,1.4826,1.481,1.48,1.4797,1.48,1.4787,1.4775,1.4775,1.4776,1.4799,1.4802,1.4804,0,0,0,0,0,1.4925,1.4927,1.492,1.4916,1.4893,1.4881,1.4878,1.4861,1.4854,1.4854,1.484,1.4826,1.4802,1.48,1.4796,1.4799,1.4774,1.4775,1.4776,1.4798,1.4801,1.4804,0,0,0,0,0,0,1.4947,1.4924,1.4915,1.4911,1.4899,1.4877,1.4876,1.4865,1.4853,1.4851,1.483,1.4825,1.4819,1.4808,1.4806,1.4797,1.4787,1.4787,1.4805,1.4807,1.481,1.4812,1.4786,0,0,0,0,0,1.4952,1.4946,1.4925,1.4923,1.4917,1.4898,1.4892,1.488,1.4866,1.486,1.4845,1.4831,1.482,1.4813,1.4802,1.4798,1.4792,1.4797,1.48,1.4802,1.4802,1.4799,1.4801,1.4779,1.4779,1.4779,0,0,1.4961,1.4948,1.4944,1.4927,1.4916,1.4909,1.4893,1.4886,1.488,1.4859,1.485,1.4838,1.4821,1.4815,1.4811,1.4805,1.4807,1.4803,1.4805,1.4803,1.48,1.4802,1.4804,1.4779,1.4779,1.4779,0,0,1.4975,1.4964,1.4961,1.4951,1.4935,1.4922,1.4921,1.4902,1.4893,1.4885,1.4868,1.4861,1.4843,1.4831,1.4823,1.4833,1.482,1.4829,1.4841,1.4839,1.484,1.4842,1.4845,1.4847,1.483,1.483,1.483,0,1.4988,1.4977,1.4961,1.4955,1.4948,1.4929,1.4926,1.4916,1.4897,1.4892,1.4886,1.4863,1.485,1.4841,1.4844,1.4838,1.4836,1.4832,1.4842,1.4843,1.4844,1.4847,1.4848,1.4831,1.4831,1.4831,1.4831,0,1.4994,1.4987,1.4987,1.497,1.4963,1.4958,1.494,1.4935,1.4924,1.4912,1.4903,1.4887,1.4872,1.4869,1.4858,1.4859,1.4855,1.4846,1.4835,1.4848,1.485,1.4851,1.4833,1.4832,1.4832,1.4832,0,0,1.502,1.4995,1.4995,1.4987,1.4969,1.4962,1.4957,1.4944,1.4939,1.4927,1.4921,1.4907,1.4898,1.4889,1.4876,1.4874,1.4883,1.4865,1.4864,1.4868,1.4882,1.4889,1.4891,1.4875,1.4875,1.4875,1.4884,0,1.503,1.502,1.5005,1.5,1.4993,1.4976,1.4971,1.4959,1.4947,1.4939,1.4926,1.4916,1.4906,1.49,1.4897,1.4883,1.4885,1.4882,1.4868,1.4868,1.4873,1.4892,1.49,1.4909,1.4885,1.4885,1.4885,0,1.504,1.503,1.5024,1.5007,1.5003,1.4999,1.4986,1.4979,1.4965,1.4956,1.4947,1.4933,1.4926,1.4917,1.4906,1.4904,1.4897,1.489,1.489,1.4887,1.4877,1.489,1.4911,1.4912,1.4886,1.4886,1.4886,0,1.5059,1.5044,1.5039,1.5033,1.5012,1.501,1.5001,1.4986,1.4979,1.4968,1.4963,1.4951,1.4943,1.4934,1.4917,1.4912,1.4908,1.4897,1.49,1.4901,1.49,1.49,1.4919,1.4896,1.4896,1.4896,1.4896,0,1.5071,1.5069,1.5047,1.5044,1.504,1.5023,1.502,1.5009,1.4996,1.499,1.4974,1.4968,1.4947,1.4939,1.4926,1.4919,1.4915,1.4908,1.4904,1.4909,1.491,1.4904,1.4903,1.4897,1.4897,1.4897,1.4897,0,1.5092,1.5077,1.5071,1.5052,1.5048,1.5046,1.5029,1.5025,1.5013,1.5006,1.5003,1.4984,1.4973,1.4956,1.494,1.4931,1.4926,1.4921,1.4932,1.4929,1.4933,1.4933,1.495,1.4951,1.4928,1.4928,1.4928,0,1.51,1.5098,1.508,1.5075,1.5067,1.506,1.5053,1.5037,1.503,1.5014,1.5012,1.5,1.499,1.4974,1.4958,1.4946,1.4939,1.4946,1.4937,1.4942,1.4939,1.4939,1.4939,1.4948,1.4948,1.4948,1.4949,0,1.5117,1.511,1.5102,1.5092,1.5085,1.5075,1.5065,1.5062,1.5042,1.5036,1.5026,1.5018,1.5003,1.4991,1.4977,1.4966,1.4954,1.4952,1.4952,1.4956,1.4963,1.4959,1.4937,1.4951,1.4951,1.4951,1.4951,1.495,1.5132,1.5129,1.5116,1.5107,1.5098,1.5089,1.5085,1.5073,1.5064,1.5051,1.5042,1.5032,1.5017,1.4997,1.4988,1.4979,1.4974,1.4974,1.4974,1.4974,1.4976,1.4965,1.4977,1.4977,1.4977,1.4976,1.4976,0,1.5147,1.5139,1.5131,1.5118,1.5111,1.5102,1.509,1.5084,1.5076,1.5065,1.5056,1.5044,1.5033,1.5017,1.5004,1.5001,1.4995,1.4998,1.4998,1.4995,1.4982,1.4983,1.5003,1.5003,1.5003,1.5003,1.5003,1.5003,1.5155,1.515,1.5142,1.5132,1.5122,1.5114,1.5108,1.5099,1.509,1.5078,1.5069,1.5059,1.5046,1.5032,1.5022,1.5017,1.5013,1.5018,1.5012,1.4999,1.4996,1.4994,1.4995,1.5017,1.5017,1.5026,1.5026,1.5026]}]]